Forestdale, MA

12:03 AM EST on February 07, 2016 (GMT -0500)
Cape Cod Coast Guard Air Station

Weather History for KFMH - December, 2014

Change the Weather History Date:

Thursday, December 25, 2014

  Actual Average Record
Temperature  
Mean Temperature 52 °F -  
Max Temperature 62 °F 39 °F 62 °F (2014)
Min Temperature 41 °F 23 °F 10 °F (1999)
Degree Days  
Heating Degree Days 14    
Growing Degree Days 2 (Base 50)    
Moisture  
Dew Point 46 °F    
Average Humidity 80    
Maximum Humidity 100    
Minimum Humidity 50    
Precipitation  
Precipitation 0.20 in - - ()
Sea Level Pressure  
Sea Level Pressure 29.70 in    
Wind  
Wind Speed 20 mph (WSW)    
Max Wind Speed 31 mph    
Max Gust Speed 43 mph    
Visibility 7 miles    
Events Rain    
Averages and records for this station are not official NWS values.
T = Trace of Precipitation, MM = Missing Value Source: NWS Daily Summary

Daily Weather History Graph

Daily Weather History Graph

Search for Another Location

Airport or City:

Trip Planner

Search our weather history database for the weather conditions in past years. The results will help you decide how hot, cold, wet, or windy it might be!

Date:

Astronomy

Dec. 25, 2014 Rise Set
Actual Time 7:07 AM EST 4:17 PM EST
Civil Twilight 6:35 AM EST 4:48 PM EST
Nautical Twilight 6:00 AM EST 5:23 PM EST
Astronomical Twilight 5:26 AM EST 5:57 PM EST
Moon 9:35 AM EST (12/25) 8:50 PM EST (12/25)
Length of Visible Light 10h 12m
Length of Day
9h 09m
Waxing Crescent, 17% of the Moon is Illuminated
Dec 25
Waxing Crescent
Dec 28
First Quarter
Jan 4
Full
Jan 13
Last Quarter
Jan 20
New

Hourly Weather History & Observations

Time (EST) Temp. Windchill Dew Point Humidity Pressure Visibility Wind Dir Wind Speed Gust Speed Precip Events Conditions
12:15 AM 62.6 °F - 62.6 °F 100% 29.61 in 3.0 mi SSW 25.3 mph 33.4 mph N/A   Light Drizzle
12:35 AM 62.6 °F - 62.6 °F 100% 29.60 in 5.0 mi SSW 27.6 mph 35.7 mph N/A   Overcast
12:55 AM 62.6 °F - 62.6 °F 100% 29.60 in 5.0 mi SSW 24.2 mph 32.2 mph N/A   Overcast
1:15 AM 62.6 °F - 62.6 °F 100% 29.59 in 4.0 mi SSW 25.3 mph 35.7 mph N/A   Overcast
1:35 AM 62.6 °F - 62.6 °F 100% 29.59 in 4.0 mi SSW 24.2 mph 33.4 mph N/A   Overcast
1:55 AM 62.6 °F - 62.6 °F 100% 29.58 in 1.8 mi SSW 21.9 mph 42.6 mph N/A   Overcast
2:15 AM 62.6 °F - 62.6 °F 100% 29.59 in 3.0 mi SSW 27.6 mph 38.0 mph N/A   Overcast
2:35 AM 62.6 °F - 62.6 °F 100% 29.58 in 0.8 mi SSW 24.2 mph 33.4 mph N/A   Overcast
2:55 AM 62.6 °F - 62.6 °F 100% 29.58 in 1.5 mi SSW 31.1 mph 38.0 mph N/A   Overcast
3:15 AM 62.6 °F - 62.6 °F 100% 29.57 in 3.0 mi SW 24.2 mph 36.8 mph N/A   Overcast
3:35 AM 60.8 °F - 60.8 °F 100% 29.56 in 7.0 mi SW 24.2 mph 38.0 mph N/A   Overcast
3:55 AM 60.8 °F - 60.8 °F 100% 29.55 in 7.0 mi SW 20.7 mph 28.8 mph N/A   Overcast
4:15 AM 60.8 °F - 60.8 °F 100% 29.56 in 7.0 mi SW 23.0 mph 32.2 mph N/A   Overcast
4:35 AM 60.8 °F - 60.8 °F 100% 29.55 in 2.5 mi SSW 19.6 mph 29.9 mph N/A   Overcast
4:55 AM 60.8 °F - 59.0 °F 94% 29.55 in 2.0 mi SW 20.7 mph 28.8 mph N/A   Overcast
5:15 AM 59.0 °F - 59.0 °F 100% 29.55 in 4.0 mi SW 24.2 mph 32.2 mph N/A   Overcast
5:35 AM 60.8 °F - 60.8 °F 100% 29.54 in 5.0 mi SW 24.2 mph 34.5 mph N/A Rain Light Rain
5:55 AM 60.8 °F - 60.8 °F 100% 29.55 in 4.0 mi SW 18.4 mph 29.9 mph N/A   Overcast
6:15 AM 60.8 °F - 60.8 °F 100% 29.55 in 3.0 mi SW 21.9 mph 31.1 mph N/A   Overcast
6:35 AM 59.0 °F - 59.0 °F 100% 29.56 in 4.0 mi SW 20.7 mph 27.6 mph N/A Rain Light Rain
6:55 AM 59.0 °F - 59.0 °F 100% 29.57 in 3.0 mi SW 24.2 mph 31.1 mph N/A   Overcast
7:15 AM 59.0 °F - 57.2 °F 94% 29.56 in 2.0 mi WSW 23.0 mph 29.9 mph N/A Rain Light Rain
7:35 AM 55.4 °F - 55.4 °F 100% 29.60 in 4.0 mi WSW 20.7 mph 28.8 mph N/A Rain Rain
7:55 AM 55.4 °F - 55.4 °F 100% 29.57 in 6.0 mi WSW 16.1 mph 23.0 mph N/A Rain Light Rain
8:15 AM 55.4 °F - 55.4 °F 100% 29.57 in 6.0 mi WSW 17.3 mph - N/A Rain Light Rain
8:35 AM 55.4 °F - 55.4 °F 100% 29.59 in 4.0 mi SW 15.0 mph 23.0 mph N/A Rain Light Rain
8:55 AM 55.4 °F - 55.4 °F 100% 29.58 in 5.0 mi SW 18.4 mph 24.2 mph N/A Rain Light Rain
9:15 AM 55.4 °F - 55.4 °F 100% 29.59 in 3.0 mi SW 18.4 mph - N/A Rain Light Rain
9:35 AM 55.4 °F - 53.6 °F 94% 29.58 in 4.0 mi SW 12.7 mph 19.6 mph N/A Rain Light Rain
9:55 AM 55.4 °F - 53.6 °F 94% 29.59 in 4.0 mi WSW 17.3 mph - N/A Rain Light Rain
10:15 AM 53.6 °F - 53.6 °F 100% 29.60 in 6.0 mi SW 23.0 mph 31.1 mph N/A Rain Light Rain
10:35 AM 51.8 °F - 50.0 °F 94% 29.60 in 6.0 mi SW 20.7 mph 26.5 mph N/A Rain Light Rain
10:55 AM 50.0 °F - 50.0 °F 100% 29.60 in 8.0 mi SW 17.3 mph 25.3 mph N/A   Mostly Cloudy
11:15 AM 50.0 °F - 48.2 °F 94% 29.60 in 9.0 mi WSW 23.0 mph 31.1 mph N/A   Mostly Cloudy
11:35 AM 48.2 °F - 46.4 °F 93% 29.59 in 9.0 mi WSW 13.8 mph 25.3 mph N/A   Mostly Cloudy
11:55 AM 48.2 °F - 46.4 °F 93% 29.58 in 10.0 mi WSW 11.5 mph 18.4 mph N/A   Scattered Clouds
12:15 PM 50.0 °F - 46.4 °F 87% 29.59 in 10.0 mi West 12.7 mph - N/A   Clear
12:35 PM 51.8 °F - 46.4 °F 82% 29.59 in 10.0 mi West 11.5 mph - N/A   Clear
12:55 PM 53.6 °F - 46.4 °F 77% 29.61 in 10.0 mi West 15.0 mph 20.7 mph N/A   Clear
1:15 PM 53.6 °F - 44.6 °F 72% 29.62 in 10.0 mi West 15.0 mph - N/A   Clear
1:35 PM 53.6 °F - 41.0 °F 62% 29.63 in 10.0 mi West 15.0 mph 23.0 mph N/A   Clear
1:55 PM 53.6 °F - 39.2 °F 58% 29.64 in 10.0 mi West 17.3 mph - N/A   Partly Cloudy
2:15 PM 53.6 °F - 37.4 °F 54% 29.65 in 10.0 mi WNW 15.0 mph 24.2 mph N/A   Mostly Cloudy
2:35 PM 51.8 °F - 37.4 °F 58% 29.67 in 10.0 mi West 11.5 mph - N/A   Mostly Cloudy
2:55 PM 51.8 °F - 37.4 °F 58% 29.69 in 10.0 mi WNW 12.7 mph - N/A   Mostly Cloudy
3:15 PM 51.8 °F - 35.6 °F 54% 29.70 in 10.0 mi West 12.7 mph 20.7 mph N/A   Mostly Cloudy
3:35 PM 51.8 °F - 35.6 °F 54% 29.72 in 10.0 mi West 13.8 mph 21.9 mph N/A   Overcast
3:55 PM 50.0 °F - 35.6 °F 58% 29.73 in 10.0 mi West 15.0 mph 24.2 mph N/A   Scattered Clouds
4:15 PM 48.2 °F - 35.6 °F 62% 29.75 in 10.0 mi West 13.8 mph 20.7 mph N/A   Clear
4:35 PM 48.2 °F - 35.6 °F 62% 29.76 in 10.0 mi West 13.8 mph - N/A   Clear
4:55 PM 48.2 °F - 32.0 °F 54% 29.78 in 10.0 mi West 13.8 mph - N/A   Clear
5:15 PM 48.2 °F - 30.2 °F 50% 29.79 in 10.0 mi West 13.8 mph - N/A   Clear
5:35 PM 46.4 °F 41.1 °F 30.2 °F 53% 29.82 in 10.0 mi West 11.5 mph 20.7 mph N/A   Clear
5:55 PM 46.4 °F 40.1 °F 30.2 °F 53% 29.83 in 10.0 mi West 15.0 mph - N/A   Clear
6:15 PM 46.4 °F 40.7 °F 30.2 °F 53% 29.83 in 10.0 mi West 12.7 mph 18.4 mph N/A   Clear
6:35 PM 44.6 °F 39.7 °F 30.2 °F 57% 29.85 in 10.0 mi West 9.2 mph - N/A   Clear
6:55 PM 46.4 °F 40.7 °F 30.2 °F 53% 29.86 in 10.0 mi West 12.7 mph - N/A   Clear
7:15 PM 44.6 °F 39.2 °F 30.2 °F 57% 29.88 in 10.0 mi West 10.4 mph 16.1 mph N/A   Clear
7:35 PM 44.6 °F 40.2 °F 30.2 °F 57% 29.89 in 10.0 mi WSW 8.1 mph - N/A   Clear
7:55 PM 44.6 °F 38.8 °F 32.0 °F 61% 29.90 in 10.0 mi WSW 11.5 mph - N/A   Clear
8:15 PM 44.6 °F 38.1 °F 32.0 °F 61% 29.91 in 10.0 mi West 13.8 mph 19.6 mph N/A   Clear
8:35 PM 44.6 °F 39.7 °F 32.0 °F 61% 29.92 in 10.0 mi West 9.2 mph - N/A   Clear
8:55 PM 42.8 °F 37.0 °F 32.0 °F 66% 29.93 in 10.0 mi WSW 10.4 mph - N/A   Clear
9:15 PM 42.8 °F 37.0 °F 32.0 °F 66% 29.93 in 10.0 mi WSW 10.4 mph - N/A   Clear
9:35 PM 44.6 °F 38.1 °F 32.0 °F 61% 29.94 in 10.0 mi WSW 13.8 mph - N/A   Clear
9:55 PM 42.8 °F 36.6 °F 32.0 °F 66% 29.95 in 10.0 mi West 11.5 mph - N/A   Clear
10:15 PM 42.8 °F 37.0 °F 32.0 °F 66% 29.96 in 10.0 mi WSW 10.4 mph - N/A   Clear
10:35 PM 42.8 °F 35.8 °F 32.0 °F 66% 29.96 in 10.0 mi West 13.8 mph - N/A   Clear
10:55 PM 42.8 °F 36.6 °F 32.0 °F 66% 29.97 in 10.0 mi WSW 11.5 mph - N/A   Clear
11:15 PM 42.8 °F 36.6 °F 32.0 °F 66% 29.97 in 10.0 mi West 11.5 mph - N/A   Clear
11:35 PM 41.0 °F 34.7 °F 32.0 °F 70% 29.98 in 10.0 mi West 10.4 mph - N/A   Clear
11:55 PM 41.0 °F 34.7 °F 32.0 °F 70% 29.98 in 10.0 mi West 10.4 mph - N/A   Clear